Time,TemperatureF,DewpointF,PressureIn,WindDirection,WindDirectionDegrees,WindSpeedMPH,WindSpeedGustMPH,Humidity,HourlyPrecipIn,Conditions,Clouds,dailyrainin,SolarRadiationWatts/m^2,SoftwareType,DateUTC
2013-04-09 00:00:00,42.0,40.0,-100.00,NW,315,4.0,-999.0,93,-99.99,,,-99.99,0.000000,,2013-04-09 04:00:00,
2013-04-09 00:43:00,42.0,40.0,-100.00,NW,315,4.0,-999.0,93,-99.99,,,-99.99,0.000000,,2013-04-09 04:43:00,
2013-04-09 00:53:00,42.0,40.0,-100.00,NW,315,4.0,-999.0,93,-99.99,,,-99.99,0.000000,,2013-04-09 04:53:00,
2013-04-09 01:00:00,41.0,39.0,-100.00,SE,135,2.0,-999.0,93,-99.99,,,-99.99,0.000000,,2013-04-09 05:00:00,
2013-04-09 01:43:00,41.0,39.0,-100.00,SE,135,2.0,-999.0,93,-99.99,,,-99.99,0.000000,,2013-04-09 05:43:00,
2013-04-09 01:52:00,41.0,39.0,-100.00,SE,135,2.0,-999.0,93,-99.99,,,-99.99,0.000000,,2013-04-09 05:52:00,
2013-04-09 02:00:00,41.0,39.0,-100.00,West,270,0.0,-999.0,93,-99.99,,,-99.99,0.000000,,2013-04-09 06:00:00,
2013-04-09 02:42:00,41.0,39.0,-100.00,West,270,0.0,-999.0,93,-99.99,,,-99.99,0.000000,,2013-04-09 06:42:00,
2013-04-09 02:52:00,41.0,39.0,-100.00,West,270,0.0,-999.0,93,-99.99,,,-99.99,0.000000,,2013-04-09 06:52:00,
2013-04-09 03:00:00,40.0,39.0,-100.00,ENE,67,2.0,-999.0,94,-99.99,,,-99.99,0.000000,,2013-04-09 07:00:00,
2013-04-09 03:42:00,40.0,39.0,-100.00,ENE,67,2.0,-999.0,94,-99.99,,,-99.99,0.000000,,2013-04-09 07:42:00,
2013-04-09 03:53:00,40.0,39.0,-100.00,ENE,67,2.0,-999.0,94,-99.99,,,-99.99,0.000000,,2013-04-09 07:53:00,
2013-04-09 04:00:00,40.0,39.0,-100.00,ENE,67,2.0,-999.0,95,-99.99,,,-99.99,0.000000,,2013-04-09 08:00:00,
2013-04-09 04:42:00,40.0,39.0,-100.00,ENE,67,2.0,-999.0,95,-99.99,,,-99.99,0.000000,,2013-04-09 08:42:00,
2013-04-09 04:52:00,40.0,39.0,-100.00,ENE,67,2.0,-999.0,95,-99.99,,,-99.99,0.000000,,2013-04-09 08:52:00,
2013-04-09 05:00:00,39.0,38.0,-100.00,East,90,3.0,-999.0,96,-99.99,,,-99.99,0.000000,,2013-04-09 09:00:00,
2013-04-09 05:44:00,39.0,38.0,-100.00,East,90,3.0,-999.0,96,-99.99,,,-99.99,0.000000,,2013-04-09 09:44:00,
2013-04-09 05:53:00,39.0,38.0,-100.00,East,90,3.0,-999.0,96,-99.99,,,-99.99,0.000000,,2013-04-09 09:53:00,
2013-04-09 06:00:00,38.0,38.0,-100.00,ESE,112,4.0,-999.0,96,-99.99,,,-99.99,0.000000,,2013-04-09 10:00:00,
2013-04-09 06:43:00,38.0,38.0,-100.00,ESE,112,4.0,-999.0,96,-99.99,,,-99.99,0.000000,,2013-04-09 10:43:00,
2013-04-09 06:54:00,38.0,38.0,-100.00,ESE,112,4.0,-999.0,96,-99.99,,,-99.99,0.000000,,2013-04-09 10:54:00,
2013-04-09 07:00:00,38.0,37.0,-100.00,ESE,112,4.0,-999.0,96,-99.99,,,-99.99,0.000000,,2013-04-09 11:00:00,
2013-04-09 07:43:00,38.0,37.0,-100.00,ESE,112,4.0,-999.0,96,-99.99,,,-99.99,0.000000,,2013-04-09 11:43:00,
2013-04-09 07:52:00,38.0,37.0,-100.00,ESE,112,4.0,-999.0,96,-99.99,,,-99.99,0.000000,,2013-04-09 11:52:00,
2013-04-09 08:00:00,38.0,37.0,-100.00,ESE,112,4.0,-999.0,96,-99.99,,,-99.99,6.960000,,2013-04-09 12:00:00,
2013-04-09 08:43:00,38.0,37.0,-100.00,ESE,112,4.0,-999.0,96,-99.99,,,-99.99,6.960000,,2013-04-09 12:43:00,
2013-04-09 08:53:00,38.0,37.0,-100.00,ESE,112,4.0,-999.0,96,-99.99,,,-99.99,6.960000,,2013-04-09 12:53:00,
2013-04-09 09:00:00,38.0,37.0,-100.00,ESE,112,6.0,-999.0,96,-99.99,,,-99.99,47.560001,,2013-04-09 13:00:00,
2013-04-09 09:43:00,38.0,37.0,-100.00,ESE,112,6.0,-999.0,96,-99.99,,,-99.99,47.560001,,2013-04-09 13:43:00,
2013-04-09 09:53:00,38.0,37.0,-100.00,ESE,112,6.0,-999.0,96,-99.99,,,-99.99,47.560001,,2013-04-09 13:53:00,
2013-04-09 10:00:00,38.0,38.0,-100.00,ESE,112,6.0,-999.0,96,-99.99,,,-99.99,105.559998,,2013-04-09 14:00:00,
2013-04-09 10:43:00,38.0,38.0,-100.00,ESE,112,6.0,-999.0,96,-99.99,,,-99.99,105.559998,,2013-04-09 14:43:00,
2013-04-09 10:53:00,38.0,38.0,-100.00,ESE,112,6.0,-999.0,96,-99.99,,,-99.99,105.559998,,2013-04-09 14:53:00,
2013-04-09 11:00:00,39.0,39.0,-100.00,ESE,112,6.0,-999.0,96,0.02,,,-99.99,78.879997,,2013-04-09 15:00:00,
2013-04-09 11:44:00,39.0,39.0,-100.00,ESE,112,6.0,-999.0,96,0.02,,,-99.99,78.879997,,2013-04-09 15:44:00,
2013-04-09 11:54:00,39.0,39.0,-100.00,ESE,112,6.0,-999.0,96,0.02,,,-99.99,78.879997,,2013-04-09 15:54:00,
2013-04-09 12:00:00,40.0,39.0,-100.00,East,90,5.0,-999.0,96,0.20,,,-99.99,17.400000,,2013-04-09 16:00:00,
2013-04-09 12:43:00,40.0,39.0,-100.00,East,90,5.0,-999.0,96,0.20,,,-99.99,17.400000,,2013-04-09 16:43:00,
2013-04-09 12:54:00,40.0,39.0,-100.00,East,90,5.0,-999.0,96,0.20,,,-99.99,17.400000,,2013-04-09 16:54:00,
2013-04-09 13:00:00,40.0,39.0,-100.00,ESE,112,6.0,-999.0,96,0.27,,,-99.99,39.439999,,2013-04-09 17:00:00,
2013-04-09 13:43:00,40.0,39.0,-100.00,ESE,112,6.0,-999.0,96,0.27,,,-99.99,39.439999,,2013-04-09 17:43:00,
2013-04-09 13:55:00,40.0,39.0,-100.00,ESE,112,6.0,-999.0,96,0.27,,,-99.99,39.439999,,2013-04-09 17:55:00,
2013-04-09 14:00:00,40.0,39.0,-100.00,ENE,67,7.0,-999.0,96,0.49,,,-99.99,5.800000,,2013-04-09 18:00:00,
2013-04-09 14:43:00,40.0,39.0,-100.00,ENE,67,7.0,-999.0,96,0.49,,,-99.99,5.800000,,2013-04-09 18:43:00,
2013-04-09 14:53:00,40.0,39.0,-100.00,ENE,67,7.0,-999.0,96,0.49,,,-99.99,5.800000,,2013-04-09 18:53:00,
2013-04-09 15:00:00,41.0,40.0,-100.00,East,90,7.0,-999.0,96,0.02,,,-99.99,68.440002,,2013-04-09 19:00:00,
2013-04-09 15:53:00,41.0,40.0,-100.00,East,90,7.0,-999.0,96,0.02,,,-99.99,68.440002,,2013-04-09 19:53:00,
2013-04-09 16:00:00,43.0,42.0,-100.00,East,90,5.0,-999.0,96,0.04,,,-99.99,85.839996,,2013-04-09 20:00:00,
2013-04-09 16:44:00,43.0,42.0,-100.00,East,90,5.0,-999.0,96,0.04,,,-99.99,85.839996,,2013-04-09 20:44:00,
2013-04-09 16:53:00,43.0,42.0,-100.00,East,90,5.0,-999.0,96,0.04,,,-99.99,85.839996,,2013-04-09 20:53:00,
2013-04-09 17:00:00,44.0,43.0,-100.00,ESE,112,6.0,-999.0,95,0.06,,,-99.99,82.360001,,2013-04-09 21:00:00,
2013-04-09 17:53:00,44.0,43.0,-100.00,ESE,112,6.0,-999.0,95,0.06,,,-99.99,82.360001,,2013-04-09 21:53:00,
2013-04-09 18:00:00,44.0,43.0,-100.00,ENE,67,5.0,-999.0,95,0.06,,,-99.99,64.959999,,2013-04-09 22:00:00,
2013-04-09 18:43:00,44.0,43.0,-100.00,ENE,67,5.0,-999.0,95,0.06,,,-99.99,64.959999,,2013-04-09 22:43:00,
2013-04-09 18:54:00,44.0,43.0,-100.00,ENE,67,5.0,-999.0,95,0.06,,,-99.99,64.959999,,2013-04-09 22:54:00,
2013-04-09 19:00:00,44.0,43.0,-100.00,NE,45,6.0,-999.0,95,-99.99,,,-99.99,24.360001,,2013-04-09 23:00:00,
2013-04-09 19:43:00,44.0,43.0,-100.00,NE,45,6.0,-999.0,95,-99.99,,,-99.99,24.360001,,2013-04-09 23:43:00,
2013-04-09 19:53:00,44.0,43.0,-100.00,NE,45,6.0,-999.0,95,-99.99,,,-99.99,24.360001,,2013-04-09 23:53:00,
2013-04-09 20:00:00,41.0,40.0,-100.00,NE,45,9.0,-999.0,95,-99.99,,,-99.99,4.640000,,2013-04-10 00:00:00,
2013-04-09 20:43:00,41.0,40.0,-100.00,NE,45,9.0,-999.0,95,-99.99,,,-99.99,4.640000,,2013-04-10 00:43:00,
2013-04-09 20:53:00,41.0,40.0,-100.00,NE,45,9.0,-999.0,95,-99.99,,,-99.99,4.640000,,2013-04-10 00:53:00,
2013-04-09 21:00:00,40.0,39.0,-100.00,NE,45,8.0,-999.0,95,0.01,,,-99.99,1.160000,,2013-04-10 01:00:00,
2013-04-09 21:43:00,40.0,39.0,-100.00,NE,45,8.0,-999.0,95,0.01,,,-99.99,1.160000,,2013-04-10 01:43:00,
2013-04-09 21:53:00,40.0,39.0,-100.00,NE,45,8.0,-999.0,95,0.01,,,-99.99,1.160000,,2013-04-10 01:53:00,
2013-04-09 22:00:00,40.0,38.0,-100.00,ENE,67,7.0,-999.0,95,0.24,,,-99.99,0.000000,,2013-04-10 02:00:00,
2013-04-09 22:43:00,40.0,38.0,-100.00,ENE,67,7.0,-999.0,95,0.24,,,-99.99,0.000000,,2013-04-10 02:43:00,
2013-04-09 22:53:00,40.0,38.0,-100.00,ENE,67,7.0,-999.0,95,0.24,,,-99.99,0.000000,,2013-04-10 02:53:00,
2013-04-09 23:00:00,40.0,38.0,-100.00,ENE,67,7.0,-999.0,95,0.08,,,-99.99,0.000000,,2013-04-10 03:00:00,
2013-04-09 23:43:00,40.0,38.0,-100.00,ENE,67,7.0,-999.0,95,0.08,,,-99.99,0.000000,,2013-04-10 03:43:00,
2013-04-09 23:53:00,40.0,38.0,-100.00,ENE,67,7.0,-999.0,95,0.08,,,-99.99,0.000000,,2013-04-10 03:53:00,